Location: Innsbruck
(47.2657°N, 11.3914°E)
Time: 21:08:41
(UTC+01:00)

BEESAT 2 - Pass Details

Date: 07 December 2021
Orbit: 498 x 513 km, 64.9° (Epoch: 24 January)

Event Time Altitude Azimuth Distance (km) Brightness Sun altitude
Exits shadow 04:25:52 16° 70° (ENE) 1,428 ? -33.2°
Drops below altitude 10° 04:27:06 10° 86° (E) 1,743 ? -33.0°
Sets 04:29:43 0° 103° (ESE) 2,624 ? -32.5°
